Weather in Tsapelka

Russia / Pskov Oblast     58°02′56″N   28°56′35″E
temp.,
°C
wind,
m/s
gust,
m/s
humid.,
%
clouds,
%
prec.,
mm/h
press.,
hPa
HPBL,
m
10 may, mon
mon1000:00+4s287475 0.0 1021140
03:00+4s4147390 0.0 1021407
06:00+6s4136999 0.0 1021475
09:00+10s5116085 0.0 1022586
12:00+14ssw595795 0.0 1022782
15:00+19ssw684879 0.0 10221421
18:00+18ssw485692 0.0 10221289
21:00+12sse3108197 0.0 1023257
11 may, tue
tue1100:00+10s31387100 0.0 1025315
03:00+9s3128880 0.0 1025281
06:00+8s298978 0.0 1026232
09:00+13s4762100 0.0 1026439
12:00+18s464672 0.0 10261062
15:00+20sse453838 0.0 10251290
18:00+19se354896 0.0 10241065
21:00+13se247619 0.0 102453
12 may, wed
wed1200:00+10se278397 0.0 1025121
03:00+9se267988 0.0 1025106
06:00+9ese2580100 0.0 1025107
09:00+15se356699 0.0 1024375
12:00+20se355623 0.0 10231034
15:00+22ese354925 0.0 10221788
18:00+19ese2371100 0.0 102077
21:00+17nne3976100 0.0 1018263
13 may, thu
thu1300:00+15e3138528 0.4 1018511
03:00+13e4129728 0.4 1017570
06:00+10se49909 0.1 1018527
09:00+12ese486721 0.1 1018674
12:00+17ese6105192 0.0 10161957
15:00+14se61069100 0.4 10161530
18:00+14se49751 0.6 10151106
21:00+11ese3978100 0.8 1015402
14 may, fri
fri1400:00+8e399145 0.0 1016197
03:00+8e311915 0.0 1015242
06:00+9e31187100 0.0 1015297
09:00+14ese41068100 0.0 1014495
12:00+19ese585698 0.0 10121141
15:00+20ese596356 0.6 10111553
18:00+17ese51085100 2.0 1009830
21:00+14e4109699 2.8 1007411